Overview Statistics Trail Chart Weather Telemetry Raw packets
 

This is the latest recevied weather packets stored in our database for station/object KH6DH-13. If no packets are shown the sender has not sent any weather packets the latest 10 day(s).

<< 11 12 13 14 15 16 17 >>
Time Temp. Humidity Pressure Rain* Wind** Luminosity Snow
1788491197 27.22° C - - 0 mm 0.45 m/s, 8° - -
1788490596 26.67° C - - 0 mm 0.89 m/s, 24° - -
1788489992 27.22° C - - 0 mm 3.58 m/s, 72° - -
1788489391 27.22° C - - 0 mm 0.89 m/s, 96° - -
1788488790 27.22° C - - 0 mm 1.79 m/s, 96° - -
1788488189 27.78° C - - 0 mm 4.47 m/s, 97° - -
1788487588 27.78° C - - 0 mm 2.24 m/s, 87° - -
1788486987 27.78° C - - 0 mm 3.58 m/s, 53° - -
1788486386 28.89° C - - 0 mm 1.79 m/s, 111° - -
1788485785 28.33° C - - 0 mm 2.68 m/s, 134° - -
1788485184 28.33° C - - 0 mm 2.68 m/s, 62° - -
1788484583 28.89° C - - 0 mm 2.68 m/s, 31° - -
1788483982 28.89° C - - 0 mm 1.79 m/s, 108° - -
1788483381 28.89° C - - 0 mm 2.24 m/s, 35° - -
1788482780 29.44° C - - 0 mm 2.68 m/s, 101° - -
1788482179 28.89° C - - 0 mm 3.13 m/s, 77° - -
1788481578 28.89° C - - 0 mm 2.24 m/s, 48° - -
1788480977 28.89° C - - 0 mm 1.34 m/s, 114° - -
1788480376 28.89° C - - 0 mm 2.24 m/s, 158° - -
1788479775 28.89° C - - 0 mm 3.13 m/s, 20° - -
1788479174 28.89° C - - 0 mm 3.58 m/s, 63° - -
1788478573 28.89° C - - 0 mm 1.34 m/s, 111° - -
1788477972 29.44° C - - 0 mm 3.13 m/s, 7° - -
1788477371 29.44° C - - 0 mm 2.24 m/s, 187° - -
1788476770 28.89° C - - 0 mm 1.79 m/s, 84° - -

* Rain latest hour (hover to see other rain measurements)
** Current wind speed in m/s (hover to see current wind gust speed)